Back to catalog

DMSP 5D-2 F8

USA 26

AliveWeatherSSO
NORAD 18123·PAYLOAD·🇺🇸 United States

Launched Jun 20, 1987 from Vandenberg Space Force Base

Loading…

Next Passes (next 24 hours)

TLE

FreshSource: Space-Track

Epoch: Sep 14, 2026, 13:46 UTC

1 18123U 87053A   26257.57370369  .00000014  00000-0  27359-4 0  9995
2 18123  98.7350  82.3952 0011352 263.4492  96.5392 14.19567277 29521

Track DMSP 5D-2 F8 in real time with AllMySat

Download on the App Store